Flag Weather past 2 weeks in Tiraspol, Moldova

Now
37 °F

Fog.


Feels Like: 33 °F
Forecast: 35 / 49 °F
Wind: 6 mph from Northwest

Location: Chisinau International Airport

Current Time: Oct 31, 2014 at 9:12:49 AM

Latest Report: Oct 31, 2014 at 8:30 AM


Visibility: 3 mi

Pressure: 30.21 "Hg

Humidity: 87%

Dew point: 34 °F

Location of TiraspolLocation

Historic Weather in Tiraspol — Graph

°F

Tiraspol temperature yesterday

Maximum temperature yesterday: 50 °F (at 1:00 PM)
Minimum temperature yesterday: 30 °F (at 5:00 AM)
Average temperature yesterday: 40 °F

Past Weeks' High & Low Weather Summary

 TemperatureHumidityPressure
High72 °F (Oct 17, 1:00 PM)100% (Oct 22, 10:00 AM)30.57 "Hg (Oct 22, 10:00 AM)
Low27 °F (Oct 25, 7:30 AM)28% (Oct 19, 3:30 PM)29.65 "Hg (Oct 23, 3:30 AM)
Average44 °F74%30.14 "Hg
* Reported Oct 16 9:00 AM — Oct 31 8:00 AM, Tiraspol, Weather by CustomWeather, © 2014

Note: Actual official high and low records may vary slightly from our data, if they occured in-between our weather recording intervals... More about our weather records

Advertising

Tiraspol weather history for previous 24 hours

 ConditionsComfort  
Time TempWeatherWind HumidityBarometerVisibility
8:00 AM
Oct 31
36 °FFog.6 mph93%30.21 "Hg2 mi
7:30 AM36 °FFog.7 mph93%30.21 "Hg1 mi
7:00 AM36 °FFog.9 mph93%30.18 "Hg1 mi
6:30 AM36 °FFog.9 mph87%30.18 "Hg1 mi
6:00 AM36 °FFog.8 mph93%30.18 "Hg1 mi
5:30 AM36 °FFog.9 mph93%30.18 "Hg1 mi
5:00 AM36 °FFog.10 mph93%30.18 "Hg1 mi
4:30 AM36 °FFog.8 mph93%30.18 "Hg1 mi
4:00 AM36 °FFog.10 mph93%30.18 "Hg1 mi
3:30 AM36 °FFog.12 mph93%30.18 "Hg1 mi
3:00 AM36 °FFog.13 mph93%30.18 "Hg1 mi
2:30 AM36 °FFog.12 mph93%30.18 "Hg1 mi
2:00 AM36 °FFog.12 mph93%30.18 "Hg2 mi
1:30 AM36 °FFog.12 mph93%30.18 "Hg2 mi
1:00 AM37 °FFog.13 mph87%30.18 "Hg2 mi
12:30 AM37 °FFog.13 mph87%30.18 "Hg2 mi
12:00 AM37 °FFog.14 mph87%30.18 "Hg2 mi
11:30 PM
Oct 30
37 °FFog.12 mph87%30.18 "Hg2 mi
11:00 PM37 °FFog.12 mph93%30.18 "Hg2 mi
10:30 PM39 °FFog.10 mph87%30.18 "Hg2 mi
10:00 PM39 °FFog.10 mph87%30.18 "Hg2 mi
9:30 PM39 °FFog.10 mph87%30.18 "Hg2 mi
9:00 PM39 °FFog.8 mph87%30.18 "Hg2 mi
8:30 PM39 °FFog.8 mph87%30.18 "Hg2 mi
8:00 PM39 °FFog.8 mph87%30.18 "Hg2 mi
7:30 PM41 °FFog.9 mph81%30.18 "Hg2 mi
7:00 PM43 °FClear.8 mph76%30.18 "Hg3 mi
6:30 PM43 °FClear.10 mph76%30.18 "Hg4 mi
6:00 PM45 °FClear.9 mph71%30.18 "Hg4 mi
5:30 PM45 °FClear.9 mph71%30.18 "Hg10 mi
5:00 PM46 °FClear.9 mph66%30.18 "Hg10 mi
4:30 PM48 °FSunny.9 mph62%30.15 "Hg10 mi
4:00 PM50 °FSunny.9 mph58%30.15 "Hg10 mi
3:30 PM50 °FPassing clouds.10 mph58%30.15 "HgN/A
3:00 PM50 °FPassing clouds.9 mph58%30.15 "HgN/A
2:30 PM50 °FPassing clouds.10 mph58%30.18 "HgN/A
2:00 PM50 °FPassing clouds.8 mph58%30.15 "HgN/A
1:30 PM50 °FPassing clouds.10 mph58%30.18 "HgN/A
1:00 PM50 °FPassing clouds.10 mph58%30.18 "HgN/A
12:30 PM48 °FSunny.9 mph62%30.18 "Hg10 mi
12:00 PM46 °FSunny.9 mph66%30.18 "Hg10 mi
11:30 AM45 °FSunny.10 mph66%30.21 "Hg10 mi
11:00 AM43 °FSunny.10 mph71%30.21 "Hg10 mi
10:30 AM41 °FClear.9 mph81%30.21 "Hg5 mi
10:00 AM39 °FClear.8 mph81%30.21 "Hg6 mi
9:30 AM39 °FClear.6 mph81%30.21 "Hg5 mi
9:00 AM36 °FFog.9 mph87%30.21 "Hg1 mi
Weather by CustomWeather, © 2014

See weather overviewHow to use our weather pages